Change the Weather History Date:

Thursday, June 19, 2014

  Actual Average (KTVL) Record (KTVL)
Temperature  
Mean Temperature 56 °F 56 °F  
Max Temperature 80 °F 73 °F 85 °F (1988)
Min Temperature 33 °F 38 °F 27 °F (1978)
Degree Days  
Heating Degree Days 8 10  
Month to date heating degree days 222  
Since 1 June heating degree days 222  
Since 1 July heating degree days 7644  
Cooling Degree Days 0 0  
Month to date cooling degree days 0  
Year to date cooling degree days 0  
Since 1 June cooling degree days 0  
Growing Degree Days 6 (Base 50)    
Moisture  
Dew Point 21 °F    
Average Humidity 26    
Maximum Humidity 66    
Minimum Humidity 9    
Precipitation  
Precipitation 0.00 in - 0.86 in (1982)
Month to date precipitation  
Year to date precipitation  
Sea Level Pressure  
Sea Level Pressure 29.95 in    
Wind  
Wind Speed 4 mph (SW)    
Max Wind Speed 15 mph    
Max Gust Speed 24 mph    
T = Trace of Precipitation, MM = Missing Value Source: NWS Daily Summary

Daily Weather History Graph

Daily Weather History Graph

Search for Another Location

Airport or City:

Trip Planner

Search our weather history database for the weather conditions in past years. The results will help you decide how hot, cold, wet, or windy it might be!

Date:

Astronomy

Jun. 19, 2014 Rise Set
Actual Time 5:34 AM PDT 8:24 PM PDT
Civil Twilight 5:02 AM PDT 8:56 PM PDT
Nautical Twilight 4:22 AM PDT 9:36 PM PDT
Astronomical Twilight 3:37 AM PDT 10:21 PM PDT
Moon 12:36 AM PDT (6/19) 1:04 PM PDT (6/19)
Length of Visible Light 15h 53m
Length of Day
14h 50m
Waning Gibbous, 50% of the Moon is Illuminated
Jun 19
Waning Gibbous
Jun 27
New
Jul 5
First Quarter
Jul 12
Full
Jul 18
Last Quarter

Hourly Weather History & Observations

Time (PDT) Temp. Dew Point Humidity Pressure Visibility Wind Dir Wind Speed Gust Speed Precip Events Conditions
12:52 AM 44.1 °F 24.1 °F 45% 29.96 in - Calm Calm - N/A   Clear
1:52 AM 39.9 °F 24.1 °F 53% 29.96 in - Calm Calm - N/A   Clear
3:52 AM 36.0 °F 23.0 °F 59% 29.96 in - Calm Calm - N/A   Clear
4:52 AM 35.1 °F 23.0 °F 61% 29.98 in - Calm Calm - N/A   Clear
5:52 AM 33.1 °F 23.0 °F 66% 30.01 in - Calm Calm - N/A   Clear
7:52 AM 48.0 °F 26.1 °F 42% 29.99 in - Calm Calm - N/A   Clear
8:52 AM 57.0 °F 28.0 °F 33% 29.96 in - Calm Calm - N/A   Clear
9:52 AM 66.9 °F 23.0 °F 19% 29.92 in - Calm Calm - N/A   Clear
10:52 AM 73.0 °F 17.1 °F 12% 29.88 in - Calm Calm - N/A   Clear
11:52 AM 78.1 °F 14.0 °F 9% 29.90 in - SW 11.5 mph 19.6 mph N/A   Clear
12:52 PM 78.1 °F 14.0 °F 9% 29.91 in - SSW 8.1 mph 21.9 mph N/A   Clear
1:44 PM 80.1 °F 24.1 °F 13% 30.19 in - South 15.0 mph 24.2 mph N/A   Scattered Clouds
1:52 PM 78.1 °F 23.0 °F 13% 29.93 in - South 11.5 mph 23.0 mph N/A   Scattered Clouds
2:52 PM 78.1 °F 24.1 °F 14% 29.93 in - South 10.4 mph 21.9 mph N/A   Clear
3:52 PM 79.0 °F 26.1 °F 14% 29.93 in - SW 11.5 mph 21.9 mph N/A   Clear
4:52 PM 75.9 °F 26.1 °F 16% 29.95 in - SSW 13.8 mph 24.2 mph N/A   Clear
5:52 PM 73.9 °F 24.1 °F 16% 29.96 in - SW 12.7 mph 20.7 mph N/A   Clear
6:52 PM 72.0 °F 23.0 °F 16% 29.96 in - SW 11.5 mph 20.7 mph N/A   Clear
7:52 PM 66.9 °F 19.0 °F 16% 29.95 in - WSW 11.5 mph - N/A   Clear
8:52 PM 61.0 °F 18.0 °F 19% 29.94 in - WNW 5.8 mph - N/A   Clear
9:52 PM 57.9 °F 18.0 °F 21% 29.92 in - NNW 5.8 mph - N/A   Clear
10:52 PM 55.0 °F 15.1 °F 21% 29.91 in - NNW 5.8 mph - N/A   Clear
11:52 PM 57.9 °F 9.0 °F 14% 29.88 in - Variable 5.8 mph - N/A   Clear